Terug naar catalogus

NOAA 17 DEB

ActiefPO
NORAD 48737·DEBRIS·🇺🇸 United States

Gelanceerd Jun 24, 2002 vanaf Vandenberg Space Force Base

Loading…

Volgende Passages (komende 24 uur)

TLE

VersSource: Space-Track

Epoch: Sep 14, 2026, 11:14 UTC

1 48737U 02032BW  26257.46844275  .00166505  00000-0  40869-2 0  9990
2 48737  98.6937 339.4026 0008742 269.4440  90.5800 15.39990843289866

Volg NOAA 17 DEB in realtime met AllMySat

Download on the App Store